User: anonymous   Login
Location: Drayton Valley
(53.2170°N, 114.9830°W)
Time: 16:38:18
(UTC-07:00)
Language:

MOZ.5/SAFIR/RUBIN 5/SL-8 - Orbit

View from above orbital plane
View from above orbital plane
View from above satellite
View from above satellite

Ground track
Ground track

The orbit data is extracted from the following two-line orbital elements,

1 28898U 05043G   18047.88771913 +.00000084 +00000-0 +26576-4 0  9993
2 28898 097.9573 192.4936 0020752 136.9302 223.3527 14.60248078278912
Epoch (UTC): 16 February 2018 21:18:18
Eccentricity: 0.0020752
inclination: 97.9573°
perigee height: 678 km
apogee height: 707 km
right ascension of ascending node: 192.4936°
argument of perigee: 136.9302°
revolutions per day: 14.60248078
mean anomaly at epoch: 223.3527°
orbit number at epoch: 27891

The dashed part of the orbit path shows where the satellite is in the earth's shadow,  

DLR